Preview of NWS' New Version of Forecast
This preview is not operational and should not be used for support decisions.

Regional Weather Roundup (RWR)

Issued by National Weather Service (NWS)

                            
000
ASUS43 KMKX 200811
RWRWI 

WISCONSIN REGIONAL WEATHER ROUNDUP
NATIONAL WEATHER SERVICE MILWAUKEE/SULLIVAN WI
300 AM CDT THU JUN 20 2019

NOTE: "FAIR" INDICATES FEW OR NO CLOUDS BELOW 12,000 FEET WITH NO
SIGNIFICANT WEATHER AND/OR OBSTRUCTIONS TO VISIBILITY.

WIZ001-002-006>008-014>016-023>028-200900-
NORTHWEST WISCONSIN
  
CITY           SKY/WX    TMP DP  RH WIND       PRES   REMARKS
SUPERIOR ARPT  FAIR      50  49  94 NE3       29.82F                  
ASHLAND        FOG       39  39 100 CALM      29.83S VSB 1/4          
HAYWARD        FAIR      51  47  86 N5        29.81S                  
SIREN          FAIR      54  47  77 E5        29.78F                  
CUMBERLAND     FAIR      59  45  58 NE6       29.79R                  
RICE LAKE      FAIR      59  49  70 NE5       29.79S                  
CHETEK         FAIR      60  50  71 E6        29.78R                  
LADYSMITH      FAIR      53  47  78 NE3       29.81S                  
EAU CLAIRE     FAIR      57  52  83 NE7       29.75S                  
MENOMONIE      FAIR      57  49  75 E5        29.75S                  
NEW RICHMOND   FAIR      61  47  61 E8        29.76S                  
OSCEOLA        FAIR      62  49  64 E6        29.79R                  
$$
 
WIZ003>005-009-010-017-018-200900-
NORTH CENTRAL WISCONSIN
  
CITY           SKY/WX    TMP DP  RH WIND       PRES   REMARKS
MANITOWISH WTR FAIR      42  42 100 CALM      29.82S                  
ARBOR VITAE    FAIR      47  45  92 CALM      29.81S                  
WOODRUFF       FAIR      47  45  92 CALM      29.81S                  
RHINELANDER    FAIR      48  41  76 CALM      29.81S                  
EAGLE RIVER    FAIR      42  42  98 CALM      29.80F                  
LAND O LAKES   FAIR      40  40  99 CALM      29.83F FOG              
PHILLIPS       FAIR      46  46 100 CALM      29.81S                  
TOMAHAWK       FAIR      41  40  96 CALM      29.81S                  
MEDFORD        FAIR      50  47  90 CALM      29.79S                  
MERRILL        FAIR      46  46 100 CALM      29.80S                  
$$
 
WIZ029-030-035-036-043>047-200900-
CENTRAL WISCONSIN
  
CITY           SKY/WX    TMP DP  RH WIND       PRES   REMARKS
WAUSAU         FAIR      55  42  61 NE3       29.76S                  
MOSINEE        FAIR      52  45  76 NE7       29.78S                  
MARSHFIELD     FAIR      56  48  74 NE6       29.76S                  
STEVENS POINT  FAIR      52  49  89 N5        29.76S                  
WAUPACA        FAIR      58  52  79 N6        29.74F                  
WAUTOMA        FAIR      57  53  86 N8        29.74S                  
WISC RAPIDS    FAIR      58  50  75 NE7       29.76S                  
CAMP DOUGLAS   FOG       52  52 100 W5        29.74S VSB 5/8          
$$
 
WIZ011>013-019>022-031-037>040-048>050-200900-
NORTHEAST WISCONSIN
  
CITY           SKY/WX    TMP DP  RH WIND       PRES   REMARKS
ANTIGO         FAIR      48  44  86 NE5       29.79S                  
SHAWANO        CLOUDY    58  51  76 NE9       29.75F                  
OCONTO         CLOUDY    56  46  69 N8        29.74F                  
STURGEON BAY   FAIR      57  47  69 N7        29.74F                  
GREEN BAY      FAIR      60  52  74 NE16G25   29.73S                  
MANITOWOC      FAIR      57  47  69 NE14G20   29.71F                  
APPLETON       FAIR      55  46  71 N8        29.71F                  
CLINTONVILLE   FAIR      56  47  72 N6        29.75F                  
OSHKOSH        CLOUDY    61  52  72 NE16      29.71S                  
$$
 
WIZ032>034-041-042-053>061-200900-
SOUTHWEST WISCONSIN
  
CITY           SKY/WX    TMP DP  RH WIND       PRES   REMARKS
LA CROSSE      MOCLDY    63  56  78 SE3       29.72F                  
SPARTA         FAIR      50  50  99 CALM      29.74F                  
VIROQUA        FAIR      57  56  97 NE3       29.74F                  
BOSCOBEL       CLOUDY    57  55  93 CALM      29.72S                  
PRAIRIE DU CHI FAIR      57  56  95 CALM      29.71F                  
PLATTEVILLE    FAIR      58  58 100 N7        29.71S                  
$$

WIZ056-057-062-063-064-067-068-200900-
SOUTH CENTRAL WISCONSIN
  
CITY           SKY/WX    TMP DP  RH WIND       PRES   REMARKS
REEDSBURG      FAIR      55  55 100 CALM      29.72S                  
BARABOO/DELLS  FAIR      57  54  89 CALM      29.72S                  
LONE ROCK      FAIR      57  56  96 W5        29.71S                  
MINERAL POINT  FAIR      59  59 100 N7        29.71S                  
MADISON        FAIR      57  53  86 N8        29.69S                  
MIDDLETON      FAIR      59  54  85 N7        29.70S                  
WATERTOWN      FAIR      57  56  97 N8        29.67F                  
MONROE         FAIR      57  55  95 N8        29.68S                  
JANESVILLE     CLOUDY    59  59 100 NE7       29.66F                  
$$
 
WIZ051-052-058>065-066-070>072-200900-
SOUTHEAST WISCONSIN
  
CITY           SKY/WX    TMP DP  RH WIND       PRES   REMARKS
MILWAUKEE      DRIZZLE   56  53  90 N14       29.65F                  
WAUKESHA       CLOUDY    54  54 100 N6        29.67F                  
MILWAUKEE/TIMM CLOUDY    55  52  88 N9G17     29.67F                  
RACINE         LGT RAIN  53  51  93 N15       29.66F                  
KENOSHA        CLOUDY    57  56  96 N8        29.63F                  
FOND DU LAC    FAIR      61  52  72 NE16G22   29.71S                  
SHEBOYGAN      FAIR      56  50  80 NE18G25   29.69S                  
WEST BEND      CLOUDY    55  54  94 NE7       29.68F                  
JUNEAU         FAIR      57  54  89 N5        29.70S                  
$$

LSZ147-162-200900-
LAKE SUPERIOR
  
STATION/POSITION TIME  TEMP    WIND        PRES    WAVE
                       AIR SEA DIR/SP/G            HT/PER
                 (UTC) (F)     (DEG/KT/KT) (MB)    (FT/S)
W MID LAKE BUOY  0750   42 38  190/  4/  4 1010.4R   0
$$
 
LMZ867-665-643>646-200900-
LAKE MICHIGAN
  
STATION/POSITION TIME  TEMP    WIND        PRES    WAVE
                       AIR SEA DIR/SP/G            HT/PER
                 (UTC) (F)     (DEG/KT/KT) (MB)    (FT/S)
N MID LAKE BUOY  0750   44 39   10/  6/  8 1007.5F   0
NORTHPORT PIER   0740   57     330/  5/  7 1007.1F
KEWAUNEE LAKESHO 0724   56      30/  8/ 13 1005.7
SHEBOYGAN LAKESH 0800   51     360/ 18/ 21 1005.3F
MILWAUKEE LAKESH 0750   54      10/ 17/ 19   N/A
S MID LAKE BUOY  0750   49 46   10/ 10/ 12 1003.2F   2/ 4
KENOSHA   LAKESH 0800   55     360/ 14/ 16 1003.4
$$

TC  - TEMPERATURE IN CELSIUS
VSB - VISIBILITY IN STATUTE MILES
WCI - WIND CHILL INDEX
HX  - HEAT INDEX